Location: Miss�
(46.9484°N, 0.1922°W)
Time: 07:39:45
(UTC+00:00)

Cosmos 1844 - Pass Details

Date: 02 March 2021
Orbit: 822 x 868 km, 70.9° (Epoch: 11 April)

Event Time Altitude Azimuth Distance (km) Brightness Sun altitude
Rises 18:47:06 0° 336° (NNW) 3,462 7.3 -10.9°
Reaches altitude 10° 18:49:44 10° 343° (NNW) 2,518 6.4 -11.3°
Maximum altitude 18:55:13 42° 54° (NE) 1,213 4.2 -12.3°
Enters shadow 18:59:47 14° 121° (ESE) 2,198 5.3 -13.0°
